Hill City, KS

12:06 AM CST on February 25, 2018 (GMT -0600)
Hill City Municipal

Weather History for KHLC - March, 2013

Change the Weather History Date:

Sunday, March 17, 2013

  Actual Average Record
Temperature  
Mean Temperature 41 °F 42 °F  
Max Temperature 53 °F 56 °F 86 °F (1994)
Min Temperature 29 °F 28 °F 9 °F (1958)
Degree Days  
Heating Degree Days 25    
Moisture  
Dew Point 31 °F    
Average Humidity 86    
Maximum Humidity 100    
Minimum Humidity 48    
Precipitation  
Precipitation T in 0.06 in 0.59 in (2008)
Month to date precipitation 0.08 0.79  
Year to date precipitation 1.27 1.76  
Sea Level Pressure  
Sea Level Pressure 29.88 in    
Wind  
Wind Speed 8 mph (SE)    
Max Wind Speed 18 mph    
Max Gust Speed 29 mph    
Visibility 6 miles    
Events Fog    
T = Trace of Precipitation, MM = Missing Value Source: NWS Daily Summary

Daily Weather History Graph

Daily Weather History Graph

Search for Another Location

Airport or City:

Trip Planner

Search our weather history database for the weather conditions in past years. The results will help you decide how hot, cold, wet, or windy it might be!

Date:

Astronomy

Mar. 17, 2013 Rise Set
Actual Time 7:47 AM CDT 7:48 PM CDT
Civil Twilight 7:20 AM CDT 8:15 PM CDT
Nautical Twilight 6:49 AM CDT 8:46 PM CDT
Astronomical Twilight 6:17 AM CDT 9:18 PM CDT
Moon 11:02 AM CDT (3/17) 12:56 AM CDT (3/17)
Length of Visible Light 12h 55m
Length of Day
12h 01m
Waxing Crescent, 31% of the Moon is Illuminated
Mar 17
Waxing Crescent
Mar 19
First Quarter
Mar 27
Full
Apr 2
Last Quarter
Apr 10
New

Hourly Weather History & Observations

Time (CDT) Temp. Windchill Dew Point Humidity Pressure Visibility Wind Dir Wind Speed Gust Speed Precip Events Conditions
12:03 AM 30.2 °F 20.2 °F 30.2 °F 100% 30.01 in 7.0 mi East 12.7 mph - N/A   Overcast
12:53 AM 30.9 °F 21.7 °F 30.0 °F 96% 30.06 in 5.0 mi ENE 11.5 mph - N/A   Overcast
1:53 AM 30.0 °F 20.0 °F 28.9 °F 96% 30.03 in 8.0 mi East 12.7 mph - N/A   Overcast
2:53 AM 30.0 °F 23.2 °F 28.9 °F 96% 30.04 in 7.0 mi East 6.9 mph - N/A   Overcast
3:53 AM 30.0 °F 23.2 °F 28.9 °F 96% 30.02 in 5.0 mi ESE 6.9 mph - N/A   Overcast
4:53 AM 30.0 °F 25.2 °F 30.0 °F 100% 30.02 in 3.0 mi SSE 4.6 mph - N/A   Overcast
5:05 AM 30.2 °F 26.7 °F 30.2 °F 100% 29.97 in 2.5 mi SE 3.5 mph - N/A   Overcast
5:18 AM 30.2 °F 26.7 °F 30.2 °F 100% 29.96 in 3.0 mi ESE 3.5 mph - N/A   Overcast
5:48 AM 30.2 °F - 30.2 °F 100% 29.96 in 2.0 mi Calm Calm - N/A   Overcast
5:53 AM 30.0 °F - 30.0 °F 100% 30.01 in 2.0 mi Calm Calm - N/A   Overcast
6:03 AM 30.2 °F 26.7 °F 30.2 °F 100% 29.96 in 1.8 mi East 3.5 mph - N/A   Overcast
6:13 AM 30.2 °F - 30.2 °F 100% 29.96 in 2.0 mi Calm Calm - N/A   Overcast
6:20 AM 30.2 °F 26.7 °F 30.2 °F 100% 29.96 in 1.5 mi East 3.5 mph - N/A   Overcast
6:30 AM 30.2 °F 26.7 °F 30.2 °F 100% 29.96 in 1.0 mi East 3.5 mph - N/A   Overcast
6:53 AM 30.0 °F 24.1 °F 28.9 °F 96% 30.00 in 0.8 mi East 5.8 mph - N/A   Overcast
7:53 AM 28.9 °F 22.8 °F 28.9 °F 100% 30.00 in 0.5 mi East 5.8 mph - N/A Fog Light Freezing Fog
8:01 AM 28.4 °F 21.2 °F 28.4 °F 100% 29.95 in 0.2 mi East 6.9 mph - N/A Fog Light Freezing Fog
8:53 AM 28.9 °F 21.9 °F 28.9 °F 100% 30.01 in 0.2 mi ESE 6.9 mph - N/A Fog Light Freezing Fog
9:53 AM 30.0 °F 21.7 °F 30.0 °F 100% 29.99 in 0.2 mi SE 9.2 mph - N/A Fog Light Freezing Fog
10:06 AM 30.2 °F 22.6 °F 30.2 °F 100% 29.93 in 0.5 mi ESE 8.1 mph - N/A Fog Light Freezing Fog
10:13 AM 30.2 °F 22.6 °F 30.2 °F 100% 29.93 in 0.2 mi SE 8.1 mph - N/A Fog Light Freezing Fog
10:22 AM 30.2 °F 21.9 °F 30.2 °F 100% 29.92 in 1.2 mi SE 9.2 mph - N/A   Overcast
10:24 AM 30.2 °F 21.3 °F 30.2 °F 100% 29.92 in 2.0 mi SE 10.4 mph - N/A   Overcast
10:44 AM 30.2 °F 21.9 °F 30.2 °F 100% 29.90 in 3.0 mi ESE 9.2 mph - N/A   Overcast
10:53 AM 30.9 °F 21.7 °F 30.0 °F 96% 29.96 in 5.0 mi SE 11.5 mph - N/A   Overcast
11:05 AM 30.2 °F 21.3 °F 30.2 °F 100% 29.89 in 6.0 mi SE 10.4 mph - N/A   Overcast
11:38 AM 33.8 °F 25.3 °F 28.4 °F 81% 29.88 in 10.0 mi SE 11.5 mph - N/A   Overcast
11:53 AM 34.0 °F 27.2 °F 28.9 °F 82% 29.93 in 9.0 mi SE 8.1 mph - N/A   Overcast
12:46 PM 42.8 °F 35.8 °F 30.2 °F 61% 29.84 in 10.0 mi SSE 13.8 mph 23.0 mph N/A   Scattered Clouds
12:53 PM 41.0 °F 34.7 °F 30.0 °F 65% 29.88 in 10.0 mi South 10.4 mph 19.6 mph N/A   Scattered Clouds
1:53 PM 46.9 °F - 30.0 °F 52% 29.82 in 10.0 mi SE 11.5 mph 25.3 mph N/A   Clear
2:53 PM 50.0 °F - 30.9 °F 48% 29.76 in 10.0 mi SSE 16.1 mph 24.2 mph N/A   Partly Cloudy
3:53 PM 52.0 °F - 33.1 °F 49% 29.70 in 10.0 mi South 18.4 mph 25.3 mph N/A   Clear
4:53 PM 52.0 °F - 35.1 °F 53% 29.65 in 10.0 mi SSE 18.4 mph 28.8 mph N/A   Clear
5:53 PM 51.1 °F - 36.0 °F 56% 29.62 in 10.0 mi SSE 13.8 mph 23.0 mph N/A   Clear
6:53 PM 48.9 °F - 36.0 °F 61% 29.65 in 10.0 mi South 17.3 mph - N/A   Clear
7:43 PM 46.4 °F 41.1 °F 35.6 °F 66% 29.63 in 10.0 mi SSE 11.5 mph - N/A   Mostly Cloudy
7:53 PM 46.0 °F 41.0 °F 35.1 °F 66% 29.66 in 10.0 mi SSE 10.4 mph - N/A   Scattered Clouds
8:34 PM 42.8 °F - 35.6 °F 76% 29.67 in 10.0 mi Calm Calm - N/A   Overcast
8:53 PM 44.1 °F 42.5 °F 35.1 °F 71% 29.73 in 10.0 mi East 3.5 mph - N/A   Overcast
9:12 PM 42.8 °F 35.8 °F 35.6 °F 76% 29.65 in 10.0 mi SE 13.8 mph - N/A   Overcast
9:53 PM 41.0 °F 38.0 °F 34.0 °F 76% 29.73 in 10.0 mi ESE 4.6 mph - 0.00 in   Clear
10:53 PM 37.0 °F 33.3 °F 32.0 °F 82% 29.79 in 10.0 mi ENE 4.6 mph - N/A   Scattered Clouds
11:05 PM 37.4 °F - 33.8 °F 87% 29.76 in 10.0 mi Calm Calm - N/A   Mostly Cloudy
11:53 PM 37.9 °F 32.7 °F 33.1 °F 83% 29.79 in 9.0 mi SE 6.9 mph - N/A   Overcast